Location: Mascot Post Office (historical)
(40.2645°N, 99.5462°W)
Time: 02:40:33
(UTC+00:00)

RESURS DK-1 - Pass Details

Date: 14 July 2020
Orbit: 555 x 562 km, 69.9° (Epoch: 14 August)

Event Time Altitude Azimuth Distance (km) Brightness Sun altitude
Rises 04:43:53 0° 349° (N) 2,752 7.1 -22.1°
Reaches altitude 10° 04:46:38 10° 8° (N) 1,854 5.7 -22.3°
Maximum altitude 04:49:38 19° 54° (NE) 1,364 4.4 -22.6°
Enters shadow 04:50:10 19° 65° (ENE) 1,383 4.3 -22.7°
